Tracking 29892 objects as of 21-Nov-2024
HD Live streaming from Space Station
objects crossing your sky now

PVSAT

Track PVSAT now!
10-day predictions


NORAD ID: 52894
Int'l Code: 2022-065A
Perigee: 697.5 km
Apogee: 711.0 km
Inclination: 98.1 °
Period: 98.7 minutes
Semi major axis: 7075 km
RCS: Unknown
Launch date: June 21, 2022
Source: South Korea (SKOR)
Launch site: Naro Space Center, South Korea (NSC)
Your satellite tracking list
Your tracking list is empty




NASA's NSSDC Master Catalog

Two Line Element Set (TLE):
1 52894U 22065A   24326.15940589  .00000829  00000-0  18713-3 0  9993
2 52894  98.1471 102.4729 0009547  10.9087 349.2317 14.58777585128787
Source of the keplerian elements: AFSPC